Regional Weather Roundup
Issued by NWS

Home | Current Version | Previous Version | Graphics & Text | Print | Product List | Glossary On
Versions: 1 2 3 4 5 6 7 8 9 10 11 12 13 14 15 16 17 18 19 20 21 22 23 24 25 26 27 28 29 30 31 32 33 34 35 36 37 38 39 40 41 42 43 44 45 46 47 48 49 50
627
ASUS45 KCYS 211710
RWRWY

WYOMING REGIONAL WEATHER ROUNDUP
NATIONAL WEATHER SERVICE CHEYENNE WY
1100 AM MDT MON AUG 21 2017

NOTE:  "FAIR" INDICATES FEW OR NO CLOUDS BELOW 12,000 FEET
WITH NO SIGNIFICANT WEATHER AND/OR OBSTRUCTIONS TO VISIBILITY.

WYZ001-211800-
YELLOWSTONE NATIONAL PARK

CITY           SKY/WX    TMP DP  RH WIND       PRES   REMARKS
LK YELLOWSTONE   N/A     56  45  66 VRB5      30.39S
W YELLOWSTONE  NOT AVBL

$$
WYZ002>013-054>058-071-098>099-211800-
NORTHERN WYOMING

CITY           SKY/WX    TMP DP  RH WIND       PRES   REMARKS
JACKSON        FAIR      60  30  32 CALM      30.30F
CODY           FAIR      69  38  32 NE9       30.23F
GREYBULL       FAIR      72  35  25 E3        30.15F
WORLAND        FAIR      72  37  28 VRB3      30.17S
SHERIDAN       FAIR      73  35  25 E3        30.19F
BUFFALO        FAIR      72  33  24 N9        30.24F
GILLETTE       FAIR      70  35  27 N16       30.19R
HULETT         FAIR      72  41  33 NE5       30.18F
NEWCASTLE      FAIR      75  37  25 N10G21    30.13R

$$
WYZ014>020-022>026-101>103-211800-
CENTRAL WYOMING

CITY           SKY/WX    TMP DP  RH WIND       PRES   REMARKS
BIG PINEY      FAIR      69  33  26 E5        30.32F
PINEDALE       FAIR      70  27  19 CALM      30.33S
DUBOIS         FAIR      64  30  27 SE6       30.31S
LANDER           N/A    N/A N/A N/A MISG      30.21F
RIVERTON       FAIR      71  33  24 SE5       30.22S
CASPER         FAIR      73  36  25 VRB3      30.22F
DOUGLAS        FAIR      76  38  25 N13       30.20R

$$
WYZ021-027>030-104>119-211800-
SOUTHERN WYOMING

CITY           SKY/WX    TMP DP  RH WIND       PRES   REMARKS
EVANSTON       FAIR      74  38  27 MISG      30.32S
KEMMERER         N/A     72  32  23 S3        30.34S
FORT BRIDGER   FAIR      75  33  20 NW5       30.35S
ROCK SPRINGS   FAIR      73  36  25 NW6       30.30S
RAWLINS        FAIR      76  32  20 W8        30.29S
SARATOGA       FAIR      73  34  23 CALM      30.31S
LARAMIE        FAIR      74  36  25 N12       30.30S
CHEYENNE       FAIR      76  40  27 N18G25    30.21R
TORRINGTON     FAIR      80  53  39 N20       30.10R
PINE BLUFFS    FAIR      77  43  29 N22       30.16R

$$




USA.gov is the U.S. government's official web portal to all federal, state and local government web resources and services.